Location: Krakow
(50.0830°N, 19.9170°E)
Time: 10:32:30
(UTC+02:00)

A-11 Canister half - Pass Details

Date: 16 March 2026
Orbit: 1523 x 1684 km, 47.3° (Epoch: 16 April)

Event Time Altitude Azimuth Distance (km) Brightness Sun altitude
Rises 12:47:28 0° 275° (W) 4,830 11.8 36.8°
Reaches altitude 10° 12:50:37 10° 273° (W) 3,822 11.4 36.6°
Maximum altitude 13:00:14 72° 192° (SSW) 1,634 10.3 36.1°
Drops below altitude 10° 13:09:32 10° 111° (ESE) 3,706 11.1 35.5°
Sets 13:12:33 0° 109° (ESE) 4,677 11.5 35.3°
